date,time edt,temp c,spcond (ms/cm),ph,do (mg/l),do (%),turbidity (fnu),chlorophyll (rfu),phycocyanin (rfu),sysbattery
06/06/2018,11:45:00,18.04,1.6,7.23,6.57,69.81,6.71,8.62,1.35,14.17
06/06/2018,12:00:00,18.05,1.61,7.24,6.71,71.27,6.53,8.8,1.37,14.21
06/06/2018,12:15:00,18.08,1.6,7.25,6.73,71.56,6.67,8.59,1.24,14.18
06/06/2018,12:30:00,18.09,1.59,7.25,6.74,71.65,6.53,8.47,1.27,14.04
06/06/2018,12:45:00,18.14,1.57,7.25,6.72,71.48,6.81,8.69,1.37,14.15
06/06/2018,13:00:00,18.17,1.56,7.27,7.03,74.87,6.87,8.98,1.36,14.13
06/06/2018,13:15:00,18.21,1.54,7.29,7.19,76.66,6.92,8.79,1.41,14.17
06/06/2018,13:30:00,18.3,1.51,7.33,7.6,81.14,6.75,9.69,1.52,14.17
06/06/2018,13:45:00,18.34,1.49,7.34,7.73,82.61,6.89,8.92,1.5,14.09
06/06/2018,14:00:00,18.39,1.48,7.34,7.81,83.49,6.7,7.38,1.16,14.04
06/06/2018,14:15:00,18.35,1.5,7.33,7.68,82.09,6.71,7.81,1.25,14.03
06/06/2018,14:30:00,18.39,1.55,7.34,7.72,82.54,6.63,9.18,1.34,14.11
06/06/2018,14:45:00,18.37,1.57,7.35,7.63,81.6,7.06,9.09,1.38,14.13
06/06/2018,15:00:00,18.39,1.57,7.36,7.92,84.69,7.17,10.44,1.38,13.58
06/06/2018,15:15:00,18.38,1.57,7.37,7.94,84.96,7.12,8.62,1.34,14.01
06/06/2018,15:30:00,18.42,1.57,7.41,8.25,88.32,7.01,8.67,1.27,13.36
06/06/2018,15:45:00,18.44,1.61,7.4,8.2,87.83,6.9,9.8,1.33,13.12
06/06/2018,16:00:00,18.48,1.61,7.44,8.71,93.33,6.99,9.35,1.51,14
06/06/2018,16:15:00,18.52,1.6,7.47,8.82,94.65,6.94,10.4,1.58,13.98
06/06/2018,16:30:00,18.48,1.72,7.38,7.97,85.48,7.18,10.94,1.64,13.69
06/06/2018,16:45:00,18.52,1.84,7.34,7.55,81.02,7.14,10.59,1.74,13.69
06/06/2018,17:00:00,18.59,1.89,7.32,7.41,79.68,7.35,11.46,1.81,13.6
06/06/2018,17:15:00,18.79,1.79,7.42,8.1,87.36,6.92,9.01,1.51,14.04
06/06/2018,17:30:00,19.14,1.62,7.56,9.03,98.14,6.51,8.78,1.15,13.33
06/06/2018,17:45:00,19.27,1.59,7.63,9.59,104.44,6.32,7.72,1.1,13.53
06/06/2018,18:00:00,19.31,1.62,7.65,9.73,106.05,6.26,7.24,1.05,13.16
06/06/2018,18:15:00,19.26,1.61,7.62,9.57,104.26,6.26,8.13,1.19,13.2
06/06/2018,18:30:00,19.45,1.67,7.62,9.53,104.19,6.01,7.91,1.08,14.13
06/06/2018,18:45:00,19.55,1.73,7.64,9.61,105.29,6.11,8.17,1.14,14.11
06/06/2018,19:00:00,19.53,1.81,7.65,9.62,105.34,6.06,9.1,1.16,14.04
06/06/2018,19:15:00,19.51,1.8,7.65,9.57,104.79,6.21,9.17,1.13,13.4
06/06/2018,19:30:00,19.44,1.85,7.62,9.43,103.15,6.22,8.47,1.05,13.8
06/06/2018,19:45:00,19.41,1.77,7.65,9.56,104.42,5.99,9.27,1.16,12.85
06/06/2018,20:00:00,19.36,1.77,7.66,9.58,104.52,5.85,9.2,1.21,12.7
06/06/2018,20:15:00,19.33,1.76,7.67,9.72,106.05,5.93,9.04,1.24,12.62
06/06/2018,20:30:00,19.31,1.77,7.69,9.76,106.4,6.07,9.33,1.29,12.57
06/06/2018,20:45:00,19.28,1.76,7.67,9.69,105.55,5.99,8.91,1.26,12.59
06/06/2018,21:00:00,19.3,1.78,7.68,9.76,106.38,5.8,8.8,1.24,12.58
06/06/2018,21:15:00,19.31,1.8,7.7,9.94,108.44,6.16,8.49,1.22,12.52
06/06/2018,21:30:00,19.26,1.79,7.62,9.46,103.05,6.17,7.3,1.01,12.54
06/06/2018,21:45:00,19.19,1.77,7.6,9.37,101.95,6.05,8,1.11,12.53
06/06/2018,22:00:00,19.16,1.76,7.59,9.28,100.9,6.05,7.1,1.07,12.55
06/06/2018,22:15:00,19.14,1.77,7.57,9.13,99.2,6.17,8.52,1.17,12.57
06/06/2018,22:30:00,19.12,1.8,7.55,9.04,98.23,6.21,7.98,1.12,12.52
06/06/2018,22:45:00,19.11,1.78,7.55,9.1,98.88,6.06,8.93,1.05,12.5
06/06/2018,23:00:00,19.1,1.77,7.55,9,97.71,6.1,8.23,1.16,12.51
06/06/2018,23:15:00,19.06,1.79,7.54,9.01,97.82,6.01,8.19,1.09,12.54
06/06/2018,23:30:00,19.04,1.79,7.52,8.89,96.39,6.2,8.59,1.19,12.54
06/06/2018,23:45:00,19.03,1.79,7.5,8.81,95.52,6.26,8,1.04,12.52
06/07/2018,0:00:00,19.02,1.84,7.47,8.57,92.94,6.11,7.9,1.08,12.54
06/07/2018,0:15:00,19.03,1.84,7.48,8.49,92.1,6.34,7.91,.97,12.53
06/07/2018,0:30:00,19.05,1.85,7.46,8.49,92.15,6.43,8.01,1.06,12.58
06/07/2018,0:45:00,18.99,1.78,7.41,8.1,87.83,6.44,7.74,.95,12.47
06/07/2018,10:00:00,18.57,1.82,7.33,7.33,78.72,6.88,6.68,.96,13.2
06/07/2018,10:15:00,18.81,1.81,7.35,7.48,80.71,6.22,6.85,.92,13.26
06/07/2018,10:30:00,19,1.8,7.35,7.53,81.6,6.43,6.51,.93,13.32
06/07/2018,10:45:00,19.12,1.8,7.37,7.68,83.45,6.32,6.55,.94,13.26
06/07/2018,11:00:00,19.19,1.81,7.39,7.86,85.55,6.32,6.54,.98,14.03
06/07/2018,11:15:00,19.37,1.82,7.41,8,87.4,6.38,6.39,.92,13.61
06/07/2018,11:30:00,19.46,1.81,7.43,8.2,89.67,6.52,6.71,1,13.91
06/07/2018,11:45:00,19.36,1.84,7.42,8.15,88.93,6.51,7.31,1.05,14
06/07/2018,12:00:00,19.25,1.82,7.41,8.06,87.8,6.53,6.38,1.11,13.22
06/07/2018,12:15:00,19.19,1.82,7.41,8.07,87.85,6.48,8.02,1.17,13.31
06/07/2018,12:30:00,19.22,1.82,7.41,7.98,86.91,6.62,8.83,1.23,13.14
06/07/2018,12:45:00,19.38,1.81,7.44,8.29,90.58,6.56,8.49,1.25,13.59
06/07/2018,13:00:00,19.42,1.8,7.45,8.25,90.17,6.83,9.44,1.36,14.03
06/07/2018,13:15:00,19.2,1.8,7.45,8.36,90.93,6.97,9.91,1.52,13.98
06/07/2018,13:30:00,19.33,1.83,7.47,8.49,92.67,6.75,9.91,1.51,13.94
06/07/2018,13:45:00,19.19,1.84,7.44,8.21,89.3,6.89,9.63,1.37,13.49
06/07/2018,14:00:00,19.21,1.92,7.43,8.14,88.64,6.84,9.52,1.3,13.94
06/07/2018,14:15:00,19.39,1.86,7.48,8.61,94.01,6.49,9.58,1.37,13.25
06/07/2018,14:30:00,19.13,1.92,7.43,7.97,86.66,6.75,10.01,1.21,13.07
06/07/2018,14:45:00,19.31,1.96,7.45,8.17,89.14,6.64,9.42,1.25,13.23
06/07/2018,15:00:00,19.5,1.9,7.5,8.58,93.95,6.7,9.33,1.3,14.01
06/07/2018,15:15:00,19.26,1.98,7.44,8.02,87.45,7.01,10.17,1.32,13.68
06/07/2018,15:30:00,19.2,2.08,7.42,7.85,85.48,6.92,10.27,1.29,13.17
06/07/2018,15:45:00,19.34,2.01,7.47,8.58,93.66,6.75,10.01,1.31,12.95
06/07/2018,16:00:00,19.44,1.97,7.51,8.49,92.88,6.72,10.26,1.31,13.86
06/07/2018,16:15:00,19.63,1.81,7.62,9.23,101.27,6.45,10.31,1.32,14.01
06/07/2018,16:30:00,19.33,1.99,7.42,8.03,87.66,6.59,12.51,1.31,13.33
06/07/2018,16:45:00,19.66,1.82,7.57,9.05,99.44,6.41,11.06,1.32,12.98
06/07/2018,17:00:00,19.54,1.98,7.49,8.44,92.55,6.62,10.34,1.32,13.09
06/07/2018,17:15:00,19.51,1.97,7.53,8.46,92.76,6.66,10.37,1.41,13.18
06/07/2018,17:30:00,19.43,2.04,7.45,7.68,84.05,7.2,10.99,1.41,14.05
06/07/2018,17:45:00,19.49,2.13,7.47,8.2,89.81,6.99,11.17,1.41,13.34
06/07/2018,18:00:00,19.26,2.26,7.42,7.44,81.19,7.05,11.59,1.45,14
06/07/2018,18:15:00,19.37,2.13,7.47,8.17,89.3,6.98,11.16,1.39,13.5
06/07/2018,18:30:00,19.25,2.29,7.4,7.58,82.65,7.41,11.63,1.48,13.02
06/07/2018,18:45:00,19.23,2.33,7.41,7.53,82.17,7.38,11.52,1.4,12.88
06/07/2018,19:00:00,19.21,2.3,7.42,7.74,84.34,7.31,11.91,1.47,12.76
06/07/2018,19:15:00,19.28,2.24,7.44,7.87,85.92,7.08,10.34,1.31,12.88
06/07/2018,19:30:00,19.18,2.34,7.39,7.39,80.48,7.17,13.9,1.48,13.01
06/07/2018,19:45:00,19.27,2.19,7.45,7.88,86.03,7.21,10.95,1.36,12.77
06/07/2018,1:00:00,18.94,1.76,7.38,7.86,85.03,6.73,7.92,1.05,12.52
06/07/2018,1:15:00,18.89,1.75,7.38,7.82,84.52,6.43,7.65,1.02,12.54
06/07/2018,1:30:00,18.88,1.79,7.38,7.76,83.94,6.59,7.12,.95,12.52
06/07/2018,1:45:00,18.85,1.77,7.37,7.69,83.14,6.81,7.29,1.02,12.54
06/07/2018,20:00:00,19.2,2.29,7.42,7.45,81.22,7.35,13.18,1.67,12.62
06/07/2018,20:15:00,19.36,2.15,7.51,8.37,91.44,6.96,10.8,1.43,12.62
06/07/2018,20:30:00,19.33,2.16,7.45,7.92,86.45,7.19,10.18,1.49,12.6
06/07/2018,20:45:00,19.32,2.11,7.49,8.05,87.87,6.99,10.88,1.38,12.6
06/07/2018,21:00:00,19.22,2.19,7.43,7.45,81.23,7.14,12.47,1.44,12.62
06/07/2018,21:15:00,19.21,2.26,7.39,7.47,81.46,7.17,11.25,1.49,12.56
06/07/2018,21:30:00,19.23,2.22,7.42,7.46,81.34,7.1,10.68,1.43,12.62
06/07/2018,21:45:00,19.24,2.19,7.42,7.63,83.17,7.22,11.23,1.47,12.58
06/07/2018,22:00:00,19.2,2.22,7.39,7.5,81.71,7.09,10.11,1.39,12.55
06/07/2018,22:15:00,19.18,2.24,7.38,7.51,81.8,7.13,10.02,1.39,12.55
06/07/2018,22:30:00,19.2,2.14,7.42,7.47,81.37,6.85,10.98,1.38,12.58
06/07/2018,22:45:00,19.15,2.19,7.4,7.53,81.96,7.22,11.15,1.44,12.57
06/07/2018,23:00:00,19.14,2,7.5,8.43,91.75,6.39,10.98,1.31,12.57
06/07/2018,23:15:00,19.13,2.18,7.36,7.16,77.84,6.88,10.81,1.37,12.57
06/07/2018,23:30:00,19.13,1.96,7.55,8.59,93.4,6.6,10.66,1.3,12.57
06/07/2018,23:45:00,19.11,2,7.49,8.05,87.48,6.58,11.04,1.33,12.57
06/07/2018,2:00:00,18.81,1.75,7.34,7.4,79.88,6.75,7.43,.99,12.55
06/07/2018,2:15:00,18.82,1.81,7.33,7.36,79.52,6.69,9.11,.96,12.53
06/07/2018,2:30:00,18.81,1.79,7.32,7.22,77.92,6.83,7.49,1.03,12.52
06/07/2018,2:45:00,18.78,1.77,7.3,7.04,75.99,7.04,6.94,.92,12.56
06/07/2018,3:00:00,18.75,1.77,7.3,6.99,75.33,7.32,6.98,.96,12.59
06/07/2018,3:15:00,18.75,1.79,7.29,6.93,74.77,7.46,7.19,.97,12.51
06/07/2018,3:30:00,18.75,1.83,7.29,6.87,74.08,7.14,7.01,.96,12.5
06/07/2018,3:45:00,18.72,1.81,7.28,6.78,73.03,7.41,6.97,.91,12.51
06/07/2018,4:00:00,18.71,1.82,7.28,6.79,73.13,8.22,7.12,1.03,12.5
06/07/2018,4:15:00,18.66,1.82,7.28,6.73,72.49,7.1,7.16,1,12.48
06/07/2018,4:30:00,18.58,1.76,7.25,6.54,70.26,7.31,6.95,.91,12.46
06/07/2018,4:45:00,18.56,1.77,7.26,6.5,69.87,6.93,6.98,.97,12.5
06/07/2018,5:00:00,18.58,1.8,7.26,6.61,71.08,7.01,7.01,.92,12.5
06/07/2018,5:15:00,18.57,1.82,7.25,6.56,70.49,6.87,7.35,.89,12.5
06/07/2018,5:30:00,18.52,1.8,7.25,6.46,69.29,6.78,7.15,.93,12.47
06/07/2018,5:45:00,18.48,1.79,7.25,6.46,69.26,6.98,7.22,.91,12.52
06/07/2018,6:00:00,18.46,1.82,7.25,6.48,69.44,7.01,7.3,.87,12.55
06/07/2018,6:15:00,18.46,1.8,7.25,6.49,69.61,6.62,6.38,.89,12.48
06/07/2018,6:30:00,18.45,1.84,7.26,6.59,70.65,7.01,6.94,.88,12.55
06/07/2018,6:45:00,18.37,1.78,7.24,6.35,67.93,6.42,6.74,.85,12.52
06/07/2018,7:00:00,18.36,1.82,7.27,6.61,70.73,6.6,7,.86,12.57
06/07/2018,7:15:00,18.42,1.83,7.27,6.66,71.35,7.19,7.32,.92,12.6
06/07/2018,7:30:00,18.36,1.81,7.26,6.61,70.69,6.84,7.21,.9,12.58
06/07/2018,7:45:00,18.42,1.84,7.28,6.76,72.46,7.1,7.24,.92,12.74
06/07/2018,8:00:00,18.42,1.87,7.28,6.83,73.21,6.67,7.35,.92,12.88
06/07/2018,8:15:00,18.42,1.86,7.29,6.9,73.93,6.71,7.19,.92,12.92
06/07/2018,8:30:00,18.44,1.85,7.3,7,75.03,6.96,6.38,.99,13.09
06/07/2018,8:45:00,18.45,1.84,7.31,7.08,75.87,6.77,7.15,.92,13.07
06/07/2018,9:00:00,18.47,1.83,7.31,7.17,76.93,6.4,7.32,.91,13.1
06/07/2018,9:15:00,18.47,1.82,7.32,7.24,77.69,6.42,6.66,.94,13.17
06/07/2018,9:30:00,18.49,1.83,7.32,7.3,78.29,6.53,6.75,.89,13.17
06/07/2018,9:45:00,18.58,1.79,7.33,7.35,78.98,6.48,7.03,.92,13.36
06/08/2018,0:00:00,19.05,1.97,7.52,8.57,92.98,6.41,10.02,1.31,12.57
06/08/2018,0:15:00,19.01,1.93,7.55,8.79,95.31,6.22,10.78,1.34,12.59
06/08/2018,0:30:00,18.98,1.95,7.51,8.56,92.81,6.38,10.8,1.34,12.56
06/08/2018,0:45:00,18.98,1.96,7.48,8.39,90.88,6.55,11.12,1.38,12.55
06/08/2018,10:00:00,18.58,1.76,7.48,8.48,91.13,5.73,6.74,.89,13.27
06/08/2018,10:15:00,18.67,1.74,7.5,8.6,92.55,5.62,7.05,.85,13.28
06/08/2018,10:30:00,18.75,1.78,7.53,8.76,94.5,5.58,5.92,.83,13.09
06/08/2018,10:45:00,19.04,1.83,7.57,8.98,97.36,5.71,5.99,.82,13.12
06/08/2018,11:00:00,19.43,1.86,7.66,9.43,103.17,5.5,5.14,.83,13.36
06/08/2018,11:15:00,20,1.84,7.63,9.33,103.17,5.67,6.1,.84,13.09
06/08/2018,11:30:00,20.22,1.69,7.51,8.62,95.69,5.31,5.92,.74,13.15
06/08/2018,11:45:00,20.25,1.53,7.46,8.45,93.78,5.05,4.7,.67,13.68
06/08/2018,12:00:00,20.43,1.62,7.51,8.71,97.11,5.16,5.39,.75,13.64
06/08/2018,12:15:00,20.59,1.58,7.52,8.78,98.17,5.17,4.34,.62,13.34
06/08/2018,12:30:00,20.71,1.6,7.54,8.92,99.96,5.05,5.38,.73,13.84
06/08/2018,12:45:00,20.7,1.57,7.54,8.96,100.38,4.94,5.4,.73,13.14
06/08/2018,13:00:00,20.75,1.57,7.58,9.18,102.95,5.14,5.76,.92,13.7
06/08/2018,13:15:00,20.9,1.56,7.61,9.43,106.05,5.53,6.82,1.05,13.79
06/08/2018,13:30:00,21.09,1.56,7.65,9.73,109.88,5.68,8.09,1.24,13.93
06/08/2018,13:45:00,21.18,1.56,7.69,9.92,112.2,5.49,7.37,1.2,13.79
06/08/2018,14:00:00,21.34,1.56,7.77,10.27,116.52,5.53,6.76,1.24,13.84
06/08/2018,14:15:00,21.27,1.56,7.89,10.66,120.78,5.84,7.89,1.32,13.7
06/08/2018,14:30:00,21.41,1.54,7.96,11.22,127.5,5.78,9.54,1.55,13.44
06/08/2018,14:45:00,21.19,1.57,7.93,11.12,125.75,5.59,10.74,1.64,12.98
06/08/2018,15:00:00,21.09,1.53,7.97,11.23,126.72,5.97,10.68,1.82,12.9
06/08/2018,15:15:00,21.02,1.53,8,11.3,127.33,5.99,12.17,2.08,13.5
06/08/2018,15:30:00,20.6,1.69,8.12,11.54,129.03,6.39,13.68,2.01,13.22
06/08/2018,15:45:00,21.16,1.58,8.57,13.11,148.13,6.2,12.18,2.18,13.79
06/08/2018,16:00:00,21.07,1.61,8.58,13.18,148.79,6.3,12.83,2.2,13.85
06/08/2018,16:15:00,21.01,1.63,8.65,13.53,152.48,6.55,14.02,2.43,13.91
06/08/2018,16:30:00,21.04,1.65,8.69,13.63,153.7,6.59,13.05,2.36,13.87
06/08/2018,16:45:00,21.57,1.67,8.67,13.52,154.11,6.06,11.71,1.79,13.85
06/08/2018,17:00:00,21.13,1.67,8.69,13.78,155.66,6.21,12.42,1.95,13.89
06/08/2018,17:15:00,20.87,1.64,8.67,13.5,151.72,6.4,13.5,2.17,13.93
06/08/2018,17:30:00,20.77,1.64,8.66,13.67,153.37,7.05,13.73,2.25,13.84
06/08/2018,17:45:00,20.8,1.76,8.65,13.66,153.42,6.61,13.41,2.02,12.91
06/08/2018,18:00:00,20.77,1.78,8.58,13.22,148.38,6.56,13.33,1.9,12.96
06/08/2018,18:15:00,20.88,1.84,8.41,12.45,140.14,6.47,11.3,1.49,13.78
06/08/2018,18:30:00,20.41,1.85,8.32,12.25,136.57,7.19,13.52,1.87,12.96
06/08/2018,18:45:00,20.35,1.87,8.26,12.2,135.86,6.5,14.2,1.97,13.07
06/08/2018,19:00:00,20.32,1.88,8.24,12.06,134.2,6.92,14.19,1.82,13.09
06/08/2018,19:15:00,20.4,1.87,8.21,11.91,132.79,6.77,13.87,1.6,12.82
06/08/2018,19:30:00,20.53,1.86,8.24,11.89,132.81,6.23,13.37,1.68,12.63
06/08/2018,19:45:00,20.59,1.9,8.15,11.6,129.85,6.03,13.78,1.67,12.62
06/08/2018,1:00:00,18.97,1.98,7.49,8.21,88.95,7.02,11.4,1.45,12.57
06/08/2018,1:15:00,18.97,2.01,7.43,7.99,86.61,6.85,10.51,1.41,12.58
06/08/2018,1:30:00,18.98,2.04,7.41,7.57,82.03,6.81,10.28,1.4,12.55
06/08/2018,1:45:00,18.95,2.15,7.37,7.37,79.93,6.82,10.49,1.42,12.52
06/08/2018,20:00:00,20.63,1.85,8.26,12.09,135.39,6.29,13.47,1.6,12.6
06/08/2018,20:15:00,20.56,1.91,8.14,11.58,129.48,6.51,12.97,1.55,12.61
06/08/2018,20:30:00,20.61,1.89,8.15,11.67,130.68,6.08,12.28,1.52,12.6
06/08/2018,20:45:00,20.6,1.87,8.23,11.96,133.79,6.07,13.16,1.59,12.69
06/08/2018,21:00:00,20.48,1.86,8.27,12.18,136.02,5.74,12.31,1.72,12.56
06/08/2018,21:15:00,20.62,1.85,8.28,12.13,135.81,5.69,11.28,1.58,12.59
06/08/2018,21:30:00,20.69,1.85,8.29,12.19,136.63,6.05,11.95,1.46,12.61
06/08/2018,21:45:00,20.65,1.82,8.28,12.24,137.03,5.72,10.18,1.37,12.58
06/08/2018,22:00:00,20.67,1.8,8.31,12.41,138.98,5.53,9.58,1.31,12.57
06/08/2018,22:15:00,20.72,1.78,8.4,12.52,140.4,6.31,10.1,1.3,12.57
06/08/2018,22:30:00,20.75,1.76,8.54,12.97,145.52,5.11,8.69,1.17,12.55
06/08/2018,22:45:00,20.67,1.78,8.39,12.47,139.69,5.18,10.41,1.32,12.59
06/08/2018,23:00:00,20.68,1.79,8.38,12.42,139.23,5.28,9.68,1.28,12.6
06/08/2018,23:15:00,20.69,1.76,8.5,12.74,142.79,5.42,10.02,1.28,12.55
06/08/2018,23:30:00,20.6,1.77,8.46,12.58,140.72,5.58,11.24,1.12,12.55
06/08/2018,23:45:00,20.57,1.78,8.35,12.41,138.77,5.71,9.27,1.29,12.55
06/08/2018,2:00:00,18.9,2.05,7.43,7.55,81.7,6.72,10.84,1.37,12.52
06/08/2018,2:15:00,18.91,2.07,7.42,7.81,84.59,6.61,11.52,1.33,12.51
06/08/2018,2:30:00,18.86,2,7.41,7.81,84.51,6.64,10.28,1.36,12.52
06/08/2018,2:45:00,18.85,2.05,7.39,7.62,82.37,6.43,10.85,1.35,12.52
06/08/2018,3:00:00,18.7,1.99,7.45,8.05,86.77,6.28,10.61,1.39,12.54
06/08/2018,3:15:00,18.67,1.97,7.47,8.23,88.64,6.13,10.4,1.32,12.5
06/08/2018,3:30:00,18.65,1.98,7.47,8.21,88.42,6.28,9.97,1.22,12.53
06/08/2018,3:45:00,18.65,1.99,7.47,8.13,87.57,6.54,10.51,1.4,12.51
06/08/2018,4:00:00,18.63,2,7.46,8.06,86.8,6.52,10.78,1.5,12.52
06/08/2018,4:15:00,18.56,1.97,7.46,8.18,87.87,6.17,10.74,1.32,12.55
06/08/2018,4:30:00,18.58,1.98,7.45,8.07,86.82,6.23,10.88,1.34,12.49
06/08/2018,4:45:00,18.51,2.02,7.45,8.07,86.67,6.16,11.19,1.41,12.51
06/08/2018,5:00:00,18.49,1.97,7.45,8.07,86.64,6.24,11.21,1.33,12.51
06/08/2018,5:15:00,18.49,2,7.43,7.96,85.39,6.5,11.4,1.38,12.46
06/08/2018,5:30:00,18.48,2.05,7.42,7.84,84.19,6.39,12.26,1.27,12.52
06/08/2018,5:45:00,18.43,2.03,7.43,7.92,84.87,6.25,10.77,1.26,12.55
06/08/2018,6:00:00,18.41,2.04,7.43,7.93,84.94,6.18,10.87,1.3,12.55
06/08/2018,6:15:00,18.4,2.03,7.42,7.84,84.02,6.3,11.29,1.15,12.68
06/08/2018,6:30:00,18.39,2.02,7.42,7.87,84.34,6.22,10.57,1.2,12.79
06/08/2018,6:45:00,18.38,2.01,7.44,7.99,85.55,6.21,9.34,1.18,12.85
06/08/2018,7:00:00,18.33,1.96,7.45,8.11,86.73,6.03,8.51,1.08,12.91
06/08/2018,7:15:00,18.17,1.78,7.38,7.59,80.83,5.5,6.44,.89,12.9
06/08/2018,7:30:00,18.17,1.73,7.36,7.6,80.97,5.52,6.79,.89,12.89
06/08/2018,7:45:00,18.25,1.8,7.39,7.73,82.51,5.54,7.71,.99,12.94
06/08/2018,8:00:00,18.28,1.78,7.39,7.77,82.99,5.56,7.66,.98,13.05
06/08/2018,8:15:00,18.33,1.79,7.4,7.82,83.63,5.61,6.98,.93,12.98
06/08/2018,8:30:00,18.35,1.79,7.4,7.85,83.97,5.7,7.19,.95,13.06
06/08/2018,8:45:00,18.41,1.79,7.41,7.91,84.75,5.6,7.16,.95,13.14
06/08/2018,9:00:00,18.41,1.79,7.41,7.88,84.39,5.78,7.41,1.04,13.13
06/08/2018,9:15:00,18.59,1.8,7.4,7.88,84.64,5.79,6.98,.92,13.16
06/08/2018,9:30:00,18.59,1.77,7.42,8.01,86.05,5.92,7.73,.97,13.15
06/08/2018,9:45:00,18.59,1.75,7.42,8.09,87.01,5.63,6.61,.88,13.14
06/09/2018,0:00:00,20.56,1.78,8.43,12.51,139.85,5.41,9.75,1.24,12.55
06/09/2018,0:15:00,20.57,1.76,8.45,12.44,139.08,5.13,10.06,1.31,12.6
06/09/2018,0:30:00,20.57,1.77,8.38,12.27,137.15,5.19,10.41,1.25,12.54
06/09/2018,0:45:00,20.56,1.79,8.3,12.06,134.83,5.22,10.62,1.3,12.51
06/09/2018,10:00:00,20.29,1.8,7.96,11.01,122.46,6.4,10.02,1.4,13.22
06/09/2018,10:15:00,20.38,1.8,7.99,11.21,124.89,6.57,9.63,1.4,13.24
06/09/2018,10:30:00,20.5,1.82,8.04,11.34,126.62,6.67,9.39,1.39,13.21
06/09/2018,10:45:00,20.6,1.78,8,11.28,126.24,6.19,9.08,1.29,13.45
06/09/2018,11:00:00,20.65,1.84,7.97,11.13,124.65,6.37,8.65,1.27,13.67
06/09/2018,11:15:00,20.94,1.81,7.93,11,123.88,5.98,7.57,1.21,13.77
06/09/2018,11:30:00,20.89,1.73,7.88,10.89,122.49,5.79,7.93,1.14,13.59
06/09/2018,11:45:00,21,1.72,7.88,10.94,123.29,5.87,7.34,1.07,13.78
06/09/2018,12:00:00,21.08,1.71,7.89,10.97,123.82,5.66,7.36,1.07,13.83
06/09/2018,12:15:00,21.24,1.7,7.93,11.1,125.74,5.61,6.83,1.05,13.84
06/09/2018,12:30:00,21.25,1.69,7.91,11.05,125.12,5.74,7.11,1.03,13.88
06/09/2018,12:45:00,21.39,1.69,8.01,11.43,129.81,5.82,7.27,1.09,13.8
06/09/2018,13:00:00,21.49,1.72,8.11,11.79,134.2,5.71,7.7,1.14,13.84
06/09/2018,13:15:00,21.54,1.74,8.24,12.22,139.21,5.87,8.16,1.26,13.81
06/09/2018,13:30:00,21.59,1.68,8.42,12.92,147.37,6.2,9.12,1.54,13.79
06/09/2018,13:45:00,21.65,1.67,8.46,13.06,149.04,6.21,10.22,1.68,13.83
06/09/2018,14:00:00,21.68,1.66,8.38,12.62,144.12,6.18,8.76,1.51,13.83
06/09/2018,14:15:00,21.79,1.69,8.45,12.98,148.62,6.07,9.35,1.62,13.82
06/09/2018,14:30:00,21.98,1.64,8.34,12.58,144.53,6.03,9.06,1.41,13.88
06/09/2018,14:45:00,22.08,1.67,8.38,12.63,145.34,5.87,8.93,1.45,13.84
06/09/2018,15:00:00,22.08,1.73,8.42,12.77,147.05,6.01,10.36,1.48,13.85
06/09/2018,15:15:00,22.07,1.76,8.51,13.08,150.56,6.19,9.57,1.58,13.83
06/09/2018,15:30:00,22.11,1.74,8.59,13.4,154.35,6.34,10.57,1.68,13.87
06/09/2018,15:45:00,22.19,1.8,8.66,13.68,157.78,6.43,10.52,1.7,13.85
06/09/2018,16:00:00,22.19,1.74,8.67,13.79,159.02,6.45,10.68,1.65,13.83
06/09/2018,16:15:00,22.23,1.77,8.71,14.03,161.96,6.21,10.88,1.65,13.78
06/09/2018,16:30:00,22.24,1.76,8.75,14.2,163.93,6.23,11.24,1.71,13.85
06/09/2018,16:45:00,22.21,1.77,8.78,14.38,166,6.3,11.42,1.67,13.84
06/09/2018,17:00:00,22.18,1.83,8.8,14.41,166.22,6.23,10.36,1.6,13.79
06/09/2018,17:15:00,22.15,1.8,8.82,14.56,167.83,6.28,11.18,1.6,13.65
06/09/2018,17:30:00,22.14,1.87,8.83,14.62,168.64,6.28,10.71,1.61,13.81
06/09/2018,17:45:00,22.13,1.84,8.83,14.55,167.69,6.26,12.1,1.62,13.85
06/09/2018,18:00:00,22.1,1.85,8.85,14.61,168.36,6.3,11.69,1.62,13.84
06/09/2018,18:15:00,22.14,1.81,8.83,14.39,165.93,6.18,13.22,1.47,13.83
06/09/2018,18:30:00,22.17,1.8,8.82,14.31,165.02,5.89,10.39,1.36,12.91
06/09/2018,18:45:00,22.09,1.84,8.84,14.41,165.92,6.07,10.68,1.42,12.92
06/09/2018,19:00:00,22.02,1.85,8.83,14.28,164.32,5.82,11.62,1.48,13.53
06/09/2018,19:15:00,21.97,1.83,8.81,14.18,162.95,5.85,10.79,1.48,12.81
06/09/2018,19:30:00,21.91,1.89,8.76,13.87,159.21,6.27,12.8,1.46,12.77
06/09/2018,19:45:00,21.85,1.86,8.74,13.77,157.85,6.4,11,1.56,12.63
06/09/2018,1:00:00,20.52,1.79,8.34,12.12,135.35,5.16,10.19,1.27,12.55
06/09/2018,1:15:00,20.48,1.79,8.35,12.23,136.53,4.97,8.78,1.2,12.57
06/09/2018,1:30:00,20.45,1.77,8.38,12.2,136.14,5.11,9.47,1.23,12.52
06/09/2018,1:45:00,20.44,1.77,8.32,12.13,135.24,5.18,9.96,1.24,12.52
06/09/2018,20:00:00,21.79,1.9,8.73,13.71,157,5.68,12.25,1.55,12.63
06/09/2018,20:15:00,21.74,1.86,8.69,13.55,154.98,5.75,12.45,1.58,12.62
06/09/2018,20:30:00,21.69,1.9,8.66,13.39,153.03,5.92,12.24,1.55,12.6
06/09/2018,20:45:00,21.62,1.83,8.59,13.11,149.63,6.11,11.32,1.39,12.62
06/09/2018,21:00:00,21.53,1.84,8.52,12.82,146.03,6.05,11.32,1.4,12.6
06/09/2018,21:15:00,21.5,1.87,8.47,12.67,144.34,6.2,11,1.41,12.59
06/09/2018,21:30:00,21.45,1.82,8.33,12.28,139.64,6.23,9.62,1.37,12.6
06/09/2018,21:45:00,21.39,1.83,8.21,11.86,134.8,5.85,9.91,1.34,12.6
06/09/2018,22:00:00,21.36,1.82,8.16,11.71,133,6.61,11.55,1.49,12.6
06/09/2018,22:15:00,21.46,1.92,8.32,12.14,138.17,6.23,12.17,1.46,12.55
06/09/2018,22:30:00,21.38,1.85,8.2,11.77,133.77,5.82,10.19,1.36,12.6
06/09/2018,22:45:00,21.38,1.87,8.2,11.8,134.07,5.76,11.27,1.47,12.55
06/09/2018,23:00:00,21.4,1.93,8.18,11.7,133.03,6.25,11.58,1.48,12.62
06/09/2018,23:15:00,21.4,1.9,8.22,11.73,133.31,5.89,11.17,1.48,12.61
06/09/2018,23:30:00,21.33,1.84,8.09,11.38,129.17,5.89,10.82,1.43,12.58
06/09/2018,23:45:00,21.32,1.86,8.1,11.44,129.88,5.92,10.94,1.43,12.56
06/09/2018,2:00:00,20.41,1.78,8.29,12.04,134.16,5.38,10.06,1.25,12.52
06/09/2018,2:15:00,20.4,1.78,8.27,11.94,133.08,5.3,9.74,1.21,12.51
06/09/2018,2:30:00,20.37,1.81,8.2,11.74,130.75,5.3,9.19,1.24,12.52
06/09/2018,2:45:00,20.36,1.78,8.2,11.71,130.42,6.06,9.71,1.19,12.52
06/09/2018,3:00:00,20.33,1.78,8.18,11.62,129.33,5.34,9.64,1.19,12.52
06/09/2018,3:15:00,20.3,1.78,8.17,11.62,129.24,5.51,9.94,1.19,12.51
06/09/2018,3:30:00,20.27,1.78,8.13,11.52,128.01,5.59,10.04,1.23,12.48
06/09/2018,3:45:00,20.24,1.79,8.11,11.38,126.46,5.39,9.8,1.22,12.52
06/09/2018,4:00:00,20.22,1.79,8.1,11.39,126.47,5.44,9.81,1.2,12.52
06/09/2018,4:15:00,20.18,1.79,8.1,11.37,126.14,5.45,9.75,1.25,12.53
06/09/2018,4:30:00,20.15,1.79,8.05,11.24,124.61,5.46,10.13,1.19,12.47
06/09/2018,4:45:00,20.13,1.8,8.02,11.1,123.04,5.55,9.96,1.26,12.5
06/09/2018,5:00:00,20.08,1.79,7.98,11.03,122.18,5.42,10.75,1.26,12.48
06/09/2018,5:15:00,20.04,1.8,7.96,10.95,121.2,5.52,10.9,1.24,12.5
06/09/2018,5:30:00,20.04,1.81,7.94,10.86,120.13,5.48,10.64,1.22,12.49
06/09/2018,5:45:00,20.01,1.81,7.89,10.73,118.68,5.64,10.3,1.15,12.7
06/09/2018,6:00:00,19.98,1.81,7.87,10.67,117.91,5.98,10.04,1.16,12.78
06/09/2018,6:15:00,19.95,1.81,7.85,10.59,116.92,5.7,9.88,1.19,12.8
06/09/2018,6:30:00,19.93,1.78,7.83,10.52,116.13,5.79,10.68,1.28,12.85
06/09/2018,6:45:00,19.91,1.81,7.8,10.41,114.89,5.96,11.76,1.53,13.01
06/09/2018,7:00:00,19.9,1.79,7.83,10.51,115.96,6.04,9.73,1.37,12.91
06/09/2018,7:15:00,19.9,1.81,7.81,10.49,115.81,6.19,12.26,1.68,12.92
06/09/2018,7:30:00,19.89,1.81,7.78,10.37,114.37,6.87,18.29,2.62,13.09
06/09/2018,7:45:00,19.93,1.85,7.85,10.54,116.41,6.36,15.64,2.06,13.15
06/09/2018,8:00:00,19.9,1.8,7.77,10.25,113.09,6.94,18.17,2.61,13.09
06/09/2018,8:15:00,19.91,1.82,7.8,10.41,114.91,7.56,23.55,3.69,13.14
06/09/2018,8:30:00,19.99,1.82,7.87,10.69,118.15,6.63,13.93,2.2,13.2
06/09/2018,8:45:00,20,1.84,7.92,10.77,119.07,6.78,12.9,2.16,13.16
06/09/2018,9:00:00,20.03,1.84,7.86,10.71,118.47,6.93,14.15,2.24,13.21
06/09/2018,9:15:00,20.05,1.84,7.87,10.83,119.9,6.48,12.96,1.94,13.21
06/09/2018,9:30:00,20.13,1.86,7.88,10.84,120.23,6.41,12.3,1.63,13.26
06/09/2018,9:45:00,20.24,1.79,7.91,10.85,120.54,6.25,9.81,1.55,13.26
06/10/2018,0:00:00,21.31,1.88,8.07,11.37,129,5.93,11.74,1.5,12.59
06/10/2018,0:15:00,21.28,1.86,8.24,11.55,131.04,6.21,11.42,1.36,12.57
06/10/2018,0:30:00,21.25,1.87,8.18,11.55,130.96,6.11,10.1,1.33,12.55
06/10/2018,0:45:00,21.28,1.89,8.17,11.47,130.14,5.96,11.32,1.48,12.56
06/10/2018,10:00:00,20.9,1.93,8,11.07,124.66,7.24,11.13,1.75,13.85
06/10/2018,10:15:00,20.96,1.94,8.07,11.21,126.31,7.41,14.08,2.21,13.87
06/10/2018,10:30:00,21.25,1.96,8.33,11.9,134.99,6.65,10.97,1.79,13.85
06/10/2018,10:45:00,21.37,1.95,8.39,12.25,139.22,6.5,10.91,1.64,13.87
06/10/2018,11:00:00,21.53,1.96,8.45,12.48,142.3,6.07,10.46,1.5,13.88
06/10/2018,11:15:00,21.7,1.96,8.52,12.73,145.51,6.16,9.23,1.38,13.85
06/10/2018,11:30:00,21.76,1.97,8.48,12.5,143.11,5.96,9.13,1.31,13.82
06/10/2018,11:45:00,21.68,1.94,8.29,11.95,136.63,6.01,8.71,1.21,13.88
06/10/2018,12:00:00,21.96,1.95,8.51,12.61,144.97,6.03,8.84,1.29,13.87
06/10/2018,12:15:00,21.89,1.94,8.45,12.47,143.08,5.99,9.16,1.27,13.84
06/10/2018,12:30:00,21.91,1.94,8.48,12.58,144.42,6.01,9.49,1.36,13.92